Location: Lancaster
(34.6980°N, 118.1360°W)
Time: 16:00:42
(UTC-08:00)

ISS - Visible Passes

Search period start: 24 November 2017 00:00
Search period end: 04 December 2017 00:00
Orbit: 401 x 407 km, 51.6° (Epoch: 25 November)

Date Brightness Start Highest point End Pass type
(mag) Time Alt. Az. Time Alt. Az. Time Alt. Az.
24 Nov -1.6 18:46:38 10° SW 18:48:04 24° SW 18:48:04 24° SW visible
25 Nov -3.1 17:54:35 10° SSW 17:57:37 37° SE 17:58:17 32° ESE visible
26 Nov -1.9 17:03:09 10° S 17:05:24 17° SE 17:07:40 10° E visible
26 Nov -2.2 18:38:38 10° WSW 18:41:04 31° WNW 18:41:04 31° WNW visible
27 Nov -3.7 17:45:59 10° SW 17:49:14 73° NW 17:51:06 23° NE visible
28 Nov -1.4 18:31:19 10° WNW 18:33:33 17° NNW 18:33:42 17° NNW visible
29 Nov -2.2 17:38:05 10° W 17:40:58 28° NW 17:43:33 12° NNE visible
01 Dec -1.3 17:30:55 10° WNW 17:32:49 14° NNW 17:34:42 10° N visible
